GW4192 Weather Reports


time (UTC)temp
C
wind
direction
speed
KPH
gust
KPH
rain 1hr
cm
rain 24hr
cm
rain mn
cm
humidity
%
barometer
mb
20260508024540 -2 245 29.0 40.2 0.00 0.51 0.18 85 1002.7
20260508023035 -2 270 25.7 38.6 0.00 0.51 0.18 84 1002.8
20260508021534 -2 245 24.1 40.2 0.00 0.51 0.18 83 1003.2
20260508020031 -2 245 24.1 40.2 0.00 0.51 0.18 83 1002.9
20260508014531 -2 271 30.6 46.7 0.00 0.61 0.18 83 1002.7
20260508013037 -1 293 33.8 49.9 0.00 0.61 0.18 82 1002.6
20260508011541 -1 269 29.0 41.8 0.00 0.61 0.18 82 1003.1
20260508010035 -1 245 27.4 40.2 0.00 0.61 0.18 82 1002.9
20260508004533 -1 271 32.2 46.7 0.00 0.66 0.18 82 1002.8
20260508003032 -2 245 30.6 40.2 0.00 0.66 0.18 82 1002.7
20260508001533 -1 269 22.5 41.8 0.00 0.66 0.18 81 1003.0
20260508000032 -1 359 25.7 45.1 0.00 0.66 0.18 79 1002.8
20260507234529 -1 245 30.6 46.7 0.00 0.97 0.18 77 1002.7
20260507233035 0 245 33.8 49.9 0.00 0.97 0.18 76 1002.2
20260507231539 0 245 32.2 56.3 0.00 0.97 0.18 75 1002.3
20260507230033 0 245 32.2 53.1 0.00 0.97 0.18 76 1002.2
20260507224531 0 245 29.0 49.9 0.00 1.04 0.18 76 1002.1
20260507223031 0 245 33.8 59.5 0.00 1.04 0.18 75 1002.2
20260507221535 0 266 35.4 51.5 0.00 1.04 0.18 76 1002.3
20260507220033 0 273 32.2 54.7 0.00 1.04 0.18 80 1001.9
20260507214532 0 245 32.2 54.7 0.00 1.09 0.18 86 1002.2
20260507213032 0 256 32.2 49.9 0.00 1.09 0.18 95 1002.3
20260507211533 0 343 24.1 38.6 0.00 1.09 0.18 97 1002.2
20260507210031 0 245 30.6 46.7 0.00 1.09 0.18 96 1002.1
20260507204532 0 245 29.0 49.9 0.00 1.19 0.18 97 1002.1
20260507203033 0 310 27.4 46.7 0.00 1.19 0.18 97 1001.8
20260507201537 0 235 27.4 48.3 0.00 1.19 0.18 97 1001.8
20260507200044 1 245 29.0 53.1 0.00 1.19 0.18 97 1001.7
20260507194532 1 308 29.0 43.5 0.00 1.32 0.18 97 1001.7
20260507193033 1 272 27.4 48.3 0.00 1.32 0.18 98 1001.8
20260507191531 1 245 30.6 48.3 0.00 1.32 0.18 99 1001.6
20260507190033 1 245 27.4 45.1 0.00 1.32 0.18 99 1002.0
20260507184531 1 245 25.7 49.9 0.00 1.63 0.18 99 1001.9
20260507183038 2 302 25.7 37.0 0.03 1.63 0.18 99 1002.0
20260507181531 2 245 20.9 38.6 0.08 1.63 0.18 99 1002.1
20260507180039 1 245 20.9 37.0 0.13 1.63 0.18 99 1002.1
20260507174534 2 275 22.5 37.0 0.13 1.98 0.18 99 1002.2
20260507173034 2 271 20.9 35.4 0.10 1.96 0.15 99 1002.2
20260507171542 1 277 22.5 37.0 0.03 1.88 0.08 99 1002.3
20260507170032 1 245 17.7 29.0 0.00 1.85 0.05 99 1002.4
20260507164536 0 245 14.5 22.5 0.00 1.93 0.05 99 1002.9
20260507163031 0 245 17.7 29.0 0.00 1.93 0.05 99 1002.7
20260507161540 1 240 17.7 27.4 0.00 1.93 0.05 99 1002.8
20260507160036 1 245 17.7 25.7 0.00 1.93 0.05 99 1003.0
20260507154536 1 245 14.5 20.9 0.00 1.96 0.05 99 1003.0
20260507153031 1 245 9.7 24.1 0.00 1.96 0.05 99 1003.2
20260507151556 1 205 14.5 27.4 0.00 1.96 0.05 99 1003.3
20260507150032 1 245 11.3 25.7 0.00 1.96 0.05 99 1003.3
20260507144534 0 245 14.5 25.7 0.00 2.06 0.05 99 1003.2
20260507143030 0 245 12.9 25.7 0.03 2.06 0.05 99 1003.2
20260507141530 0 255 19.3 29.0 0.03 2.06 0.05 99 1003.2
20260507140034 0 298 17.7 29.0 0.03 2.06 0.05 99 1003.3
20260507134542 0 245 17.7 27.4 0.03 2.08 0.05 99 1003.2
20260507133031 0 0 0.0 0.0 0.00 2.06 0.03 99 1003.2
20260507131537 0 0 0.0 0.0 0.00 2.06 0.03 99 1003.3
20260507130033 0 0 0.0 0.0 0.00 2.06 0.03 99 1003.1
20260507124533 0 0 0.0 0.0 0.00 2.06 0.03 99 1003.3
20260507123036 0 0 0.0 0.0 0.00 2.06 0.03 99 1003.0
20260507121532 0 0 0.0 0.0 0.00 2.06 0.03 99 1003.0
20260507120032 0 0 0.0 0.0 0.00 2.06 0.03 99 1003.0
20260507114535 -1 0 0.0 0.0 0.00 2.06 0.03 99 1003.1
20260507113030 -1 0 0.0 0.0 0.00 2.06 0.03 99 1003.3
20260507111532 -1 0 0.0 0.0 0.00 2.06 0.03 99 1003.4
20260507110046 -1 0 0.0 0.0 0.00 2.06 0.03 99 1003.1
20260507104532 -1 0 0.0 0.0 0.00 2.06 0.03 99 1003.3
20260507103031 -1 0 0.0 0.0 0.00 2.06 0.03 99 1002.8
20260507101540 -1 0 6.4 27.4 0.00 2.06 0.03 99 1002.6
20260507100035 -1 245 17.7 29.0 0.00 2.06 0.03 99 1002.4
20260507094532 -1 245 17.7 32.2 0.00 2.06 0.03 99 1002.6
20260507093033 -1 245 19.3 30.6 0.00 2.06 0.03 99 1002.1
20260507091537 -1 283 20.9 30.6 0.00 2.06 0.03 99 1001.9
20260507090039 -1 309 24.1 37.0 0.00 2.06 0.03 99 1001.7
20260507084537 -1 314 27.4 38.6 0.00 2.06 0.03 99 1001.5
20260507083037 -1 245 24.1 35.4 0.00 2.06 0.03 99 1002.3
20260507081534 -1 245 24.1 33.8 0.00 2.06 0.03 99 1002.5
20260507080033 -1 245 25.7 37.0 0.00 2.06 0.03 99 1001.6
20260507074542 -1 298 27.4 41.8 0.00 2.11 0.03 99 1001.6
20260507073033 -1 335 24.1 33.8 0.00 2.11 0.03 99 1001.2
20260507071532 -1 245 24.1 38.6 0.00 2.11 0.03 99 1002.1
20260507070034 0 293 29.0 40.2 0.00 2.11 0.03 99 1001.0
20260507064536 0 245 27.4 46.7 0.00 2.13 0.03 99 1001.5
20260507063035 0 245 27.4 43.5 0.00 2.13 0.03 99 1001.1
20260507061530 0 298 32.2 54.7 0.00 2.13 0.03 99 1001.5
20260507060031 0 245 30.6 48.3 0.00 2.13 0.03 99 1001.5
20260507054533 0 245 33.8 45.1 0.00 2.16 0.03 99 1001.2
20260507053033 0 289 29.0 41.8 0.00 2.16 0.03 99 1001.6
20260507051538 0 245 27.4 40.2 0.03 2.16 0.03 99 1001.9
20260507050039 0 329 24.1 40.2 0.03 2.16 0.03 99 1001.8
20260507044532 0 303 29.0 46.7 0.03 2.16 0.03 99 1001.8
20260507043030 1 330 24.1 38.6 0.05 2.16 0.03 99 1002.1
20260507041532 1 296 29.0 51.5 0.08 2.13 0.00 99 1002.5
20260507040033 1 245 35.4 49.9 0.08 2.13 0.00 99 1002.7
20260507034550 1 245 27.4 46.7 0.15 2.13 2.13 99 1002.9
20260507033036 1 321 33.8 48.3 0.15 2.11 2.11 99 1003.0
20260507031531 1 245 30.6 45.1 0.15 2.06 2.06 99 1003.0
20260507030030 1 245 27.4 41.8 0.23 2.06 2.06 99 1003.1